Tracking 29594 objects as of 20-Sep-2024
HD Live streaming from Space Station
objects crossing your sky now

STARLINK-5148

Track STARLINK-5148 now!
10-day predictions
STARLINK-5148 is classified as:


NORAD ID: 53978
Int'l Code: 2022-125Q
Perigee: 546.0 km
Apogee: 547.8 km
Inclination: 53.2 °
Period: 95.4 minutes
Semi major axis: 6917 km
RCS: Unknown
Launch date: October 5, 2022
Source: United States (US)
Launch site: AIR FORCE WESTERN TEST RANGE (AFWTR)
Your satellite tracking list
Your tracking list is empty




NASA's NSSDC Master Catalog

Two Line Element Set (TLE):
1 53978U 22125Q   24264.27227610  .00001007  00000-0  81367-4 0  9996
2 53978  53.2162 102.6158 0001359  89.8081 270.3067 15.08832115108567
Source of the keplerian elements: AFSPC